SWA2870 KLAX-KMSY

Flight info

Callsign SWA2870
Flight time 3h 18m
Altitude 37000
Route DOTSS2 CNERY BLH SALOM EWM SJT GRK CLL LCH AWDAD1
Aircraft B738/M-SDE2E3FGHIRWXY/LB1

Departure

Time 2026-05-07 15:34
Airport Los Angeles International Airport (KLAX)

Arrival

Time 2026-05-07 18:53
Airport Louis Armstrong New Orleans International Airport (KMSY)
Time Latitude Longitude Altitude Speed Heading
2026-05-07 15:09 33.94694 -118.40070 119 ft 0 kts 264°
2026-05-07 15:26 33.94694 -118.40063 118 ft 2 kts 265°
2026-05-07 15:26 33.94696 -118.40047 118 ft 2 kts 268°
2026-05-07 15:27 33.94692 -118.40029 118 ft 2 kts 301°
2026-05-07 15:27 33.94683 -118.40015 118 ft 1 kts 325°
2026-05-07 15:27 33.94678 -118.40012 118 ft 0 kts 334°
2026-05-07 15:27 33.94700 -118.40022 118 ft 4 kts 353°
2026-05-07 15:28 33.94724 -118.40020 118 ft 1 kts
2026-05-07 15:28 33.94725 -118.40020 118 ft 0 kts
2026-05-07 15:31 33.94765 -118.40017 118 ft 8 kts
2026-05-07 15:31 33.94821 -118.40025 118 ft 7 kts 331°
2026-05-07 15:31 33.94852 -118.40067 118 ft 5 kts 314°
2026-05-07 15:32 33.94911 -118.40069 118 ft 13 kts 43°
2026-05-07 15:32 33.94932 -118.39968 117 ft 8 kts 77°
2026-05-07 15:32 33.94943 -118.39944 117 ft 0 kts 49°
2026-05-07 15:32 33.94944 -118.39942 117 ft 1 kts 48°
2026-05-07 15:33 33.94985 -118.39919 117 ft 9 kts
2026-05-07 15:33 33.95036 -118.39965 117 ft 11 kts 277°
2026-05-07 15:33 33.95017 -118.40199 119 ft 57 kts 263°
2026-05-07 15:33 33.94942 -118.40920 124 ft 114 kts 263°
2026-05-07 15:34 33.94824 -118.42083 119 ft 162 kts 263°
2026-05-07 15:34 33.94694 -118.43516 445 ft 173 kts 264°
2026-05-07 15:34 33.94575 -118.45039 804 ft 186 kts 265°
2026-05-07 15:34 33.94430 -118.46588 1355 ft 191 kts 264°
2026-05-07 15:35 33.94320 -118.48236 1732 ft 203 kts 268°
2026-05-07 15:35 33.94252 -118.49984 1999 ft 216 kts 266°
2026-05-07 15:35 33.93713 -118.51717 2193 ft 233 kts 231°
2026-05-07 15:35 33.92311 -118.52783 2468 ft 247 kts 193°
2026-05-07 15:36 33.90578 -118.52908 2912 ft 257 kts 178°
2026-05-07 15:36 33.88732 -118.52796 3375 ft 267 kts 177°
2026-05-07 15:36 33.86871 -118.52689 3987 ft 271 kts 178°
2026-05-07 15:36 33.84972 -118.52606 4653 ft 272 kts 178°
2026-05-07 15:37 33.83078 -118.52539 5293 ft 274 kts 178°
2026-05-07 15:37 33.81167 -118.52477 5930 ft 276 kts 178°
2026-05-07 15:37 33.79215 -118.52412 6595 ft 278 kts 178°
2026-05-07 15:37 33.77272 -118.52346 7186 ft 283 kts 178°
2026-05-07 15:38 33.75303 -118.52278 7797 ft 286 kts 177°
2026-05-07 15:38 33.73289 -118.52161 8415 ft 289 kts 172°
2026-05-07 15:38 33.71342 -118.51566 9015 ft 289 kts 152°
2026-05-07 15:38 33.69754 -118.50140 9651 ft 287 kts 129°
2026-05-07 15:39 33.68622 -118.48148 10262 ft 288 kts 115°
2026-05-07 15:39 33.67796 -118.45923 10616 ft 301 kts 109°
2026-05-07 15:39 33.67073 -118.43484 10967 ft 315 kts 107°
2026-05-07 15:39 33.66366 -118.40952 11307 ft 329 kts 106°
2026-05-07 15:40 33.65617 -118.38295 11652 ft 343 kts 107°
2026-05-07 15:40 33.64839 -118.35517 12001 ft 355 kts 104°
2026-05-07 15:40 33.64334 -118.32581 12344 ft 365 kts 94°
2026-05-07 15:40 33.64202 -118.29504 12861 ft 369 kts 88°
2026-05-07 15:41 33.64241 -118.26426 13444 ft 373 kts 86°
2026-05-07 15:41 33.64327 -118.23282 14030 ft 377 kts 86°
2026-05-07 15:41 33.64402 -118.20129 14613 ft 381 kts 86°
2026-05-07 15:41 33.64449 -118.16914 15200 ft 386 kts 86°
2026-05-07 15:42 33.64471 -118.13698 15779 ft 389 kts 87°
2026-05-07 15:42 33.64478 -118.10448 16359 ft 393 kts 87°
2026-05-07 15:42 33.64476 -118.07120 16946 ft 397 kts 87°
2026-05-07 15:42 33.64471 -118.03818 17526 ft 400 kts 87°
2026-05-07 15:43 33.64464 -118.00462 18110 ft 403 kts 87°
2026-05-07 15:43 33.64457 -117.97094 18697 ft 405 kts 87°
2026-05-07 15:43 33.64450 -117.93695 19289 ft 408 kts 87°
2026-05-07 15:43 33.64442 -117.90291 19877 ft 410 kts 87°
2026-05-07 15:44 33.64434 -117.86861 20468 ft 411 kts 87°
2026-05-07 15:44 33.64369 -117.83418 20960 ft 416 kts 89°
2026-05-07 15:44 33.64121 -117.79941 21426 ft 422 kts 94°
2026-05-07 15:44 33.63607 -117.76475 21893 ft 428 kts 98°
2026-05-07 15:45 33.62891 -117.72987 22362 ft 432 kts 101°
2026-05-07 15:45 33.62072 -117.69510 22832 ft 436 kts 103°
2026-05-07 15:45 33.61192 -117.65981 23302 ft 439 kts 103°
2026-05-07 15:45 33.60302 -117.62476 23781 ft 441 kts 103°
2026-05-07 15:46 33.58514 -117.55432 24623 ft 448 kts 103°
2026-05-07 15:46 33.57596 -117.51791 24907 ft 455 kts 103°
2026-05-07 15:46 33.56685 -117.48157 25188 ft 461 kts 103°
2026-05-07 15:47 33.55754 -117.44435 25471 ft 467 kts 103°
2026-05-07 15:47 33.54823 -117.40709 25750 ft 473 kts 103°
2026-05-07 15:47 33.53872 -117.36903 26115 ft 476 kts 103°
2026-05-07 15:47 33.52914 -117.33075 26529 ft 477 kts 103°
2026-05-07 15:48 33.51986 -117.29265 26940 ft 476 kts 102°
2026-05-07 15:48 33.51199 -117.25414 27354 ft 473 kts 98°
2026-05-07 15:48 33.50675 -117.21542 27769 ft 469 kts 93°
2026-05-07 15:48 33.50391 -117.17680 28183 ft 466 kts 90°
2026-05-07 15:49 33.50245 -117.13816 28595 ft 465 kts 88°
2026-05-07 15:49 33.50171 -117.09963 29012 ft 463 kts 88°
2026-05-07 15:49 33.50131 -117.06069 29432 ft 461 kts 87°
2026-05-07 15:49 33.50104 -117.02265 29845 ft 461 kts 87°
2026-05-07 15:50 33.50076 -116.98427 30255 ft 460 kts 87°
2026-05-07 15:50 33.50043 -116.94609 30669 ft 460 kts 87°
2026-05-07 15:50 33.50002 -116.90771 31075 ft 461 kts 87°
2026-05-07 15:50 33.49956 -116.86903 31494 ft 461 kts 86°
2026-05-07 15:51 33.49905 -116.83073 31909 ft 460 kts 87°
2026-05-07 15:51 33.49849 -116.79249 32324 ft 460 kts 86°
2026-05-07 15:51 33.49791 -116.75438 32737 ft 459 kts 86°
2026-05-07 15:51 33.49730 -116.71600 33155 ft 458 kts 86°
2026-05-07 15:52 33.49667 -116.67811 33566 ft 457 kts 86°
2026-05-07 15:52 33.49602 -116.64002 33994 ft 455 kts 86°
2026-05-07 15:52 33.49536 -116.60231 34430 ft 453 kts 86°
2026-05-07 15:52 33.49469 -116.56450 34863 ft 451 kts 86°
2026-05-07 15:53 33.49401 -116.52702 35296 ft 449 kts 86°
2026-05-07 15:53 33.49332 -116.48961 35730 ft 446 kts 86°
2026-05-07 15:53 33.49263 -116.45234 36167 ft 443 kts 86°
2026-05-07 15:53 33.49192 -116.41530 36605 ft 440 kts 86°
2026-05-07 15:54 33.49128 -116.37843 37032 ft 436 kts 86°
2026-05-07 15:54 33.49024 -116.30431 37091 ft 444 kts 86°
2026-05-07 15:55 33.48924 -116.22905 37068 ft 454 kts 86°
2026-05-07 15:55 33.48809 -116.15233 37029 ft 457 kts 86°
2026-05-07 15:56 33.48733 -116.07618 37008 ft 453 kts 84°
2026-05-07 15:56 33.49543 -116.00197 36977 ft 443 kts 71°
2026-05-07 15:57 33.51383 -115.93214 36977 ft 440 kts 66°
2026-05-07 15:57 33.53480 -115.86317 36997 ft 439 kts 65°
2026-05-07 15:58 33.55563 -115.79462 37027 ft 439 kts 65°
2026-05-07 15:58 33.57625 -115.72525 37044 ft 439 kts 66°
2026-05-07 15:59 33.59642 -115.65634 37059 ft 439 kts 66°
2026-05-07 15:59 33.61311 -115.58548 37053 ft 444 kts 76°
2026-05-07 16:00 33.61752 -115.51109 37053 ft 450 kts 85°
2026-05-07 16:00 33.61596 -115.43592 37039 ft 452 kts 88°
2026-05-07 16:01 33.61337 -115.36077 37029 ft 451 kts 88°
2026-05-07 16:01 33.61091 -115.28513 37018 ft 451 kts 88°
2026-05-07 16:02 33.60872 -115.21031 37009 ft 450 kts 88°
2026-05-07 16:02 33.60663 -115.13538 37001 ft 450 kts 87°
2026-05-07 16:03 33.60457 -115.06040 36989 ft 449 kts 87°
2026-05-07 16:03 33.60249 -114.98529 36986 ft 450 kts 88°
2026-05-07 16:04 33.60038 -114.91021 36981 ft 449 kts 88°
2026-05-07 16:04 33.59824 -114.83572 36978 ft 448 kts 87°
2026-05-07 16:05 33.59604 -114.76090 36972 ft 448 kts 88°
2026-05-07 16:05 33.59128 -114.68626 36972 ft 450 kts 91°
2026-05-07 16:06 33.58409 -114.61155 36969 ft 449 kts 92°
2026-05-07 16:06 33.57677 -114.53750 36969 ft 449 kts 92°
2026-05-07 16:07 33.56963 -114.46275 36971 ft 449 kts 91°
2026-05-07 16:07 33.56276 -114.38881 36972 ft 449 kts 91°
2026-05-07 16:08 33.55585 -114.31390 36976 ft 448 kts 92°
2026-05-07 16:08 33.54902 -114.23989 36989 ft 447 kts 92°
2026-05-07 16:09 33.54218 -114.16599 36994 ft 447 kts 92°
2026-05-07 16:09 33.53526 -114.09174 37012 ft 447 kts 92°
2026-05-07 16:10 33.52834 -114.01788 37025 ft 446 kts 92°
2026-05-07 16:10 33.52137 -113.94405 37027 ft 446 kts 92°
2026-05-07 16:11 33.51389 -113.87024 37025 ft 446 kts 94°
2026-05-07 16:11 33.50229 -113.79749 37024 ft 448 kts 97°
2026-05-07 16:12 33.48890 -113.72424 37024 ft 448 kts 98°
2026-05-07 16:12 33.47564 -113.65160 37028 ft 447 kts 97°
2026-05-07 16:13 33.46267 -113.57914 37024 ft 445 kts 97°
2026-05-07 16:13 33.44980 -113.50624 37026 ft 446 kts 97°
2026-05-07 16:14 33.43702 -113.43364 37023 ft 445 kts 97°
2026-05-07 16:14 33.42429 -113.36141 37020 ft 444 kts 97°
2026-05-07 16:15 33.41148 -113.28894 37012 ft 444 kts 97°
2026-05-07 16:15 33.39871 -113.21697 37016 ft 443 kts 98°
2026-05-07 16:16 33.38594 -113.14525 37009 ft 441 kts 97°
2026-05-07 16:16 33.37310 -113.07325 36999 ft 443 kts 97°
2026-05-07 16:17 33.36023 -113.00144 36986 ft 439 kts 97°
2026-05-07 16:17 33.34737 -112.92989 36997 ft 440 kts 98°
2026-05-07 16:18 33.33445 -112.85825 36993 ft 440 kts 98°
2026-05-07 16:18 33.32156 -112.78700 36994 ft 440 kts 98°
2026-05-07 16:19 33.30858 -112.71558 36994 ft 440 kts 98°
2026-05-07 16:19 33.29556 -112.64417 37000 ft 439 kts 98°
2026-05-07 16:20 33.28253 -112.57298 36995 ft 439 kts 98°
2026-05-07 16:20 33.26947 -112.50178 36996 ft 438 kts 98°
2026-05-07 16:21 33.25640 -112.43079 37005 ft 438 kts 98°
2026-05-07 16:21 33.24327 -112.35971 37018 ft 439 kts 98°
2026-05-07 16:22 33.23005 -112.28843 37049 ft 439 kts 99°
2026-05-07 16:22 33.21680 -112.21719 37051 ft 439 kts 99°
2026-05-07 16:23 33.20351 -112.14602 37043 ft 440 kts 100°
2026-05-07 16:23 33.19017 -112.07483 37014 ft 438 kts 100°
2026-05-07 16:24 33.17682 -112.00379 37001 ft 438 kts 100°
2026-05-07 16:24 33.16354 -111.93335 36994 ft 439 kts 100°
2026-05-07 16:25 33.15006 -111.86208 36994 ft 441 kts 100°
2026-05-07 16:25 33.13648 -111.79048 37003 ft 438 kts 100°
2026-05-07 16:26 33.12300 -111.71957 37001 ft 439 kts 101°
2026-05-07 16:26 33.10944 -111.64865 37005 ft 439 kts 101°
2026-05-07 16:27 33.09584 -111.57777 36998 ft 438 kts 101°
2026-05-07 16:27 33.08221 -111.50693 37022 ft 440 kts 101°
2026-05-07 16:28 33.06853 -111.43601 37020 ft 440 kts 102°
2026-05-07 16:28 33.05474 -111.36474 37030 ft 443 kts 102°
2026-05-07 16:29 33.04081 -111.29305 37036 ft 442 kts 103°
2026-05-07 16:29 33.02687 -111.22154 37049 ft 446 kts 103°
2026-05-07 16:30 33.01285 -111.14984 37061 ft 444 kts 103°
2026-05-07 16:30 32.99869 -111.07761 37063 ft 447 kts 103°
2026-05-07 16:31 32.98449 -111.00542 37079 ft 449 kts 103°
2026-05-07 16:31 32.97028 -110.93340 37082 ft 447 kts 104°
2026-05-07 16:32 32.95599 -110.86122 37072 ft 447 kts 104°
2026-05-07 16:32 32.94176 -110.78963 37072 ft 446 kts 104°
2026-05-07 16:33 32.92745 -110.71783 37075 ft 447 kts 104°
2026-05-07 16:33 32.91301 -110.64566 37080 ft 449 kts 104°
2026-05-07 16:34 32.89848 -110.57316 37103 ft 449 kts 104°
2026-05-07 16:34 32.88394 -110.50094 37112 ft 451 kts 105°
2026-05-07 16:35 32.86924 -110.42807 37125 ft 451 kts 105°
2026-05-07 16:35 32.85451 -110.35541 37128 ft 452 kts 105°
2026-05-07 16:36 32.83976 -110.28277 37128 ft 452 kts 106°
2026-05-07 16:36 32.82492 -110.20996 37144 ft 455 kts 106°
2026-05-07 16:37 32.80985 -110.13631 37149 ft 457 kts 106°
2026-05-07 16:37 32.79489 -110.06338 37164 ft 456 kts 106°
2026-05-07 16:38 32.77976 -109.98989 37181 ft 459 kts 107°
2026-05-07 16:38 32.76454 -109.91619 37176 ft 458 kts 107°
2026-05-07 16:39 32.74928 -109.84246 37156 ft 459 kts 107°
2026-05-07 16:39 32.73396 -109.76865 37145 ft 459 kts 107°
2026-05-07 16:40 32.71861 -109.69500 37128 ft 460 kts 107°
2026-05-07 16:40 32.70316 -109.62112 37137 ft 461 kts 107°
2026-05-07 16:41 32.68771 -109.54740 37142 ft 462 kts 108°
2026-05-07 16:41 32.67217 -109.47356 37139 ft 463 kts 108°
2026-05-07 16:42 32.65646 -109.39904 37152 ft 463 kts 108°
2026-05-07 16:42 32.64075 -109.32487 37165 ft 465 kts 108°
2026-05-07 16:43 32.62496 -109.25057 37176 ft 465 kts 109°
2026-05-07 16:43 32.60898 -109.17561 37175 ft 467 kts 109°
2026-05-07 16:44 32.59309 -109.10125 37185 ft 469 kts 109°
2026-05-07 16:44 32.57701 -109.02624 37188 ft 470 kts 109°
2026-05-07 16:45 32.56090 -108.95127 37186 ft 470 kts 109°
2026-05-07 16:45 32.54462 -108.87572 37194 ft 472 kts 109°
2026-05-07 16:46 32.52833 -108.80047 37201 ft 474 kts 110°
2026-05-07 16:46 32.51191 -108.72482 37204 ft 472 kts 110°
2026-05-07 16:47 32.49549 -108.64947 37206 ft 474 kts 110°
2026-05-07 16:47 32.47901 -108.57407 37219 ft 474 kts 110°
2026-05-07 16:48 32.46243 -108.49840 37243 ft 475 kts 110°
2026-05-07 16:48 32.44579 -108.42273 37239 ft 477 kts 110°
2026-05-07 16:49 32.42910 -108.34692 37234 ft 475 kts 111°
2026-05-07 16:49 32.41233 -108.27106 37239 ft 477 kts 111°
2026-05-07 16:50 32.39540 -108.19481 37239 ft 480 kts 111°
2026-05-07 16:50 32.37839 -108.11839 37228 ft 480 kts 112°
2026-05-07 16:51 32.36126 -108.04168 37215 ft 482 kts 111°
2026-05-07 16:51 32.34422 -107.96545 37217 ft 482 kts 112°
2026-05-07 16:52 32.32703 -107.88880 37210 ft 481 kts 112°
2026-05-07 16:52 32.30971 -107.81195 37198 ft 484 kts 112°
2026-05-07 16:53 32.29248 -107.73573 37196 ft 483 kts 112°
2026-05-07 16:53 32.27504 -107.65883 37190 ft 484 kts 112°
2026-05-07 16:54 32.25753 -107.58189 37181 ft 486 kts 112°
2026-05-07 16:54 32.23990 -107.50459 37174 ft 486 kts 112°
2026-05-07 16:55 32.22232 -107.42772 37184 ft 487 kts 112°
2026-05-07 16:55 32.20458 -107.35043 37185 ft 489 kts 112°
2026-05-07 16:56 32.18680 -107.27310 37190 ft 487 kts 113°
2026-05-07 16:56 32.15995 -107.15689 37192 ft 490 kts 114°
2026-05-07 16:57 32.14212 -107.07997 37189 ft 487 kts 114°
2026-05-07 16:57 32.12417 -107.00280 37186 ft 489 kts 114°
2026-05-07 16:58 32.10614 -106.92544 37184 ft 487 kts 114°
2026-05-07 16:58 32.08805 -106.84827 37184 ft 491 kts 114°
2026-05-07 16:59 32.06984 -106.77066 37181 ft 491 kts 114°
2026-05-07 16:59 32.05158 -106.69311 37183 ft 491 kts 114°
2026-05-07 17:00 32.03316 -106.61508 37190 ft 493 kts 114°
2026-05-07 17:00 32.01477 -106.53741 37190 ft 493 kts 114°
2026-05-07 17:01 31.99637 -106.45988 37186 ft 493 kts 114°
2026-05-07 17:01 31.97777 -106.38184 37180 ft 495 kts 114°
2026-05-07 17:02 31.95950 -106.30302 37179 ft 499 kts 111°
2026-05-07 17:02 31.94768 -106.22188 37174 ft 507 kts 105°
2026-05-07 17:03 31.93993 -106.13927 37190 ft 510 kts 103°
2026-05-07 17:03 31.93395 -106.05608 37209 ft 513 kts 102°
2026-05-07 17:04 31.92808 -105.97237 37219 ft 514 kts 102°
2026-05-07 17:04 31.92188 -105.88860 37217 ft 512 kts 103°
2026-05-07 17:05 31.91542 -105.80535 37213 ft 513 kts 103°
2026-05-07 17:05 31.90875 -105.72156 37211 ft 513 kts 103°
2026-05-07 17:06 31.90202 -105.63834 37207 ft 513 kts 103°
2026-05-07 17:06 31.89519 -105.55456 37202 ft 514 kts 103°
2026-05-07 17:07 31.88833 -105.47088 37200 ft 514 kts 103°
2026-05-07 17:07 31.88146 -105.38725 37189 ft 513 kts 103°
2026-05-07 17:08 31.87451 -105.30359 37179 ft 515 kts 104°
2026-05-07 17:08 31.86753 -105.22050 37172 ft 513 kts 104°
2026-05-07 17:09 31.86040 -105.13653 37165 ft 515 kts 104°
2026-05-07 17:09 31.85327 -105.05293 37169 ft 515 kts 104°
2026-05-07 17:10 31.84605 -104.96877 37167 ft 515 kts 104°
2026-05-07 17:10 31.83884 -104.88531 37176 ft 514 kts 104°
2026-05-07 17:11 31.83148 -104.80138 37184 ft 517 kts 104°
2026-05-07 17:11 31.82412 -104.71770 37181 ft 514 kts 104°
2026-05-07 17:12 31.81667 -104.63352 37182 ft 517 kts 104°
2026-05-07 17:12 31.80916 -104.54941 37175 ft 515 kts 104°
2026-05-07 17:13 31.80164 -104.46571 37167 ft 515 kts 104°
2026-05-07 17:13 31.79400 -104.38154 37166 ft 516 kts 104°
2026-05-07 17:14 31.78632 -104.29752 37161 ft 517 kts 104°
2026-05-07 17:14 31.77856 -104.21317 37165 ft 518 kts 104°
2026-05-07 17:15 31.77079 -104.12913 37162 ft 518 kts 104°
2026-05-07 17:15 31.76294 -104.04489 37167 ft 517 kts 104°
2026-05-07 17:16 31.75504 -103.96088 37157 ft 516 kts 104°
2026-05-07 17:16 31.74705 -103.87664 37160 ft 518 kts 104°
2026-05-07 17:17 31.73899 -103.79230 37163 ft 519 kts 104°
2026-05-07 17:17 31.73088 -103.70778 37158 ft 519 kts 104°
2026-05-07 17:18 31.72276 -103.62388 37158 ft 519 kts 104°
2026-05-07 17:18 31.71459 -103.53983 37154 ft 520 kts 104°
2026-05-07 17:19 31.70627 -103.45507 37156 ft 520 kts 104°
2026-05-07 17:19 31.69791 -103.37071 37157 ft 522 kts 104°
2026-05-07 17:20 31.68951 -103.28596 37155 ft 520 kts 105°
2026-05-07 17:20 31.68105 -103.20158 37153 ft 522 kts 104°
2026-05-07 17:21 31.67255 -103.11708 37152 ft 521 kts 104°
2026-05-07 17:21 31.66401 -103.03284 37152 ft 521 kts 104°
2026-05-07 17:22 31.65537 -102.94839 37151 ft 521 kts 105°
2026-05-07 17:22 31.64673 -102.86425 37153 ft 522 kts 105°
2026-05-07 17:23 31.63788 -102.77904 37152 ft 525 kts 105°
2026-05-07 17:23 31.62907 -102.69423 37152 ft 522 kts 104°
2026-05-07 17:24 31.62017 -102.60945 37149 ft 524 kts 104°
2026-05-07 17:24 31.61127 -102.52491 37150 ft 524 kts 104°
2026-05-07 17:25 31.60223 -102.43980 37150 ft 525 kts 105°
2026-05-07 17:25 31.59318 -102.35480 37150 ft 524 kts 105°
2026-05-07 17:26 31.58406 -102.26992 37149 ft 523 kts 105°
2026-05-07 17:26 31.57487 -102.18527 37146 ft 525 kts 105°
2026-05-07 17:27 31.56563 -102.10049 37140 ft 525 kts 105°
2026-05-07 17:27 31.55628 -102.01542 37134 ft 526 kts 105°
2026-05-07 17:28 31.54688 -101.93040 37135 ft 525 kts 105°
2026-05-07 17:28 31.53745 -101.84545 37137 ft 528 kts 105°
2026-05-07 17:29 31.52800 -101.76045 37137 ft 526 kts 105°
2026-05-07 17:29 31.51851 -101.67577 37137 ft 526 kts 105°
2026-05-07 17:30 31.50885 -101.59056 37137 ft 529 kts 105°
2026-05-07 17:30 31.49914 -101.50520 37139 ft 529 kts 104°
2026-05-07 17:31 31.48936 -101.41949 37135 ft 527 kts 105°
2026-05-07 17:31 31.47956 -101.33424 37133 ft 528 kts 105°
2026-05-07 17:32 31.46973 -101.24915 37136 ft 528 kts 105°
2026-05-07 17:32 31.46138 -101.17786 37134 ft 528 kts 105°
2026-05-07 17:33 31.44979 -101.07882 37135 ft 527 kts 105°
2026-05-07 17:33 31.43962 -100.99303 37137 ft 531 kts 105°
2026-05-07 17:34 31.42947 -100.90729 37139 ft 528 kts 105°
2026-05-07 17:34 31.41941 -100.82251 37141 ft 527 kts 105°
2026-05-07 17:35 31.40906 -100.73640 37139 ft 529 kts 105°
2026-05-07 17:35 31.39878 -100.65131 37132 ft 531 kts 105°
2026-05-07 17:36 31.38850 -100.56628 37131 ft 527 kts 105°
2026-05-07 17:36 31.37802 -100.48058 37132 ft 530 kts 105°
2026-05-07 17:37 31.36764 -100.39526 37130 ft 530 kts 104°
2026-05-07 17:37 31.35747 -100.31001 37135 ft 529 kts 105°
2026-05-07 17:38 31.34723 -100.22470 37137 ft 530 kts 105°
2026-05-07 17:38 31.33699 -100.13983 37132 ft 529 kts 105°
2026-05-07 17:39 31.32665 -100.05454 37131 ft 530 kts 105°
2026-05-07 17:39 31.31618 -99.96896 37139 ft 532 kts 105°
2026-05-07 17:40 31.30569 -99.88376 37130 ft 529 kts 105°
2026-05-07 17:40 31.29509 -99.79824 37133 ft 533 kts 105°
2026-05-07 17:41 31.28443 -99.71271 37125 ft 531 kts 105°
2026-05-07 17:41 31.27371 -99.62714 37133 ft 533 kts 105°
2026-05-07 17:42 31.26300 -99.54189 37130 ft 532 kts 105°
2026-05-07 17:42 31.25218 -99.45644 37133 ft 533 kts 105°
2026-05-07 17:43 31.24139 -99.37116 37130 ft 531 kts 105°
2026-05-07 17:43 31.23046 -99.28561 37132 ft 530 kts 106°
2026-05-07 17:44 31.21943 -99.20010 37126 ft 531 kts 105°
2026-05-07 17:44 31.20842 -99.11510 37128 ft 531 kts 105°
2026-05-07 17:45 31.19730 -99.02979 37117 ft 530 kts 105°
2026-05-07 17:45 31.18610 -98.94437 37118 ft 531 kts 105°
2026-05-07 17:46 31.17489 -98.85906 37115 ft 533 kts 105°
2026-05-07 17:46 31.16368 -98.77395 37116 ft 532 kts 105°
2026-05-07 17:47 31.15243 -98.68893 37108 ft 531 kts 105°
2026-05-07 17:47 31.14103 -98.60349 37112 ft 532 kts 105°
2026-05-07 17:48 31.12959 -98.51826 37110 ft 532 kts 105°
2026-05-07 17:48 31.11809 -98.43299 37115 ft 531 kts 106°
2026-05-07 17:49 31.10650 -98.34777 37112 ft 533 kts 106°
2026-05-07 17:49 31.09483 -98.26211 37115 ft 534 kts 105°
2026-05-07 17:50 31.08323 -98.17725 37115 ft 531 kts 106°
2026-05-07 17:50 31.07153 -98.09210 37115 ft 533 kts 106°
2026-05-07 17:51 31.05973 -98.00708 37113 ft 533 kts 106°
2026-05-07 17:51 31.04788 -97.92178 37111 ft 533 kts 106°
2026-05-07 17:52 31.03532 -97.83711 37117 ft 529 kts 109°
2026-05-07 17:52 31.01640 -97.75452 37118 ft 522 kts 116°
2026-05-07 17:53 30.99295 -97.67487 37118 ft 516 kts 118°
2026-05-07 17:53 30.96840 -97.59639 37111 ft 519 kts 118°
2026-05-07 17:54 30.94349 -97.51675 37102 ft 521 kts 118°
2026-05-07 17:54 30.91917 -97.43789 37100 ft 519 kts 118°
2026-05-07 17:55 30.89479 -97.35831 37096 ft 522 kts 117°
2026-05-07 17:55 30.87048 -97.27859 37098 ft 517 kts 118°
2026-05-07 17:56 30.84624 -97.19920 37097 ft 520 kts 118°
2026-05-07 17:56 30.82204 -97.12032 37098 ft 517 kts 118°
2026-05-07 17:57 30.80190 -97.05470 37098 ft 518 kts 118°
2026-05-07 17:57 30.77360 -96.96279 37096 ft 518 kts 118°
2026-05-07 17:58 30.74927 -96.88426 37097 ft 517 kts 118°
2026-05-07 17:58 30.72466 -96.80515 37095 ft 518 kts 118°
2026-05-07 17:59 30.70030 -96.72671 37102 ft 519 kts 118°
2026-05-07 17:59 30.67581 -96.64793 37101 ft 517 kts 118°
2026-05-07 18:00 30.65126 -96.56915 37102 ft 521 kts 118°
2026-05-07 18:00 30.62661 -96.49018 37100 ft 517 kts 118°
2026-05-07 18:01 30.60521 -96.41007 37099 ft 526 kts 110°
2026-05-07 18:01 30.59096 -96.32631 37098 ft 529 kts 106°
2026-05-07 18:02 30.57524 -96.19888 37095 ft 532 kts 104°
2026-05-07 18:03 30.56513 -96.11372 37092 ft 534 kts 105°
2026-05-07 18:03 30.55460 -96.02865 37092 ft 533 kts 105°
2026-05-07 18:04 30.54357 -95.94299 37083 ft 533 kts 105°
2026-05-07 18:04 30.53260 -95.85876 37084 ft 531 kts 105°
2026-05-07 18:05 30.52143 -95.77367 37080 ft 532 kts 105°
2026-05-07 18:05 30.51022 -95.68902 37077 ft 535 kts 105°
2026-05-07 18:06 30.49894 -95.60390 37075 ft 532 kts 105°
2026-05-07 18:06 30.48766 -95.51923 37078 ft 531 kts 105°
2026-05-07 18:07 30.47623 -95.43402 37067 ft 535 kts 105°
2026-05-07 18:07 30.46480 -95.34924 37060 ft 534 kts 105°
2026-05-07 18:08 30.45336 -95.26466 37058 ft 530 kts 105°
2026-05-07 18:08 30.44181 -95.17995 37055 ft 531 kts 105°
2026-05-07 18:09 30.43026 -95.09562 37051 ft 532 kts 105°
2026-05-07 18:09 30.41856 -95.01051 37046 ft 532 kts 105°
2026-05-07 18:10 30.40692 -94.92606 37040 ft 531 kts 105°
2026-05-07 18:10 30.39528 -94.84209 37040 ft 531 kts 105°
2026-05-07 18:11 30.38340 -94.75732 37031 ft 532 kts 105°
2026-05-07 18:11 30.37158 -94.67304 37034 ft 531 kts 105°
2026-05-07 18:12 30.35960 -94.58810 37029 ft 531 kts 104°
2026-05-07 18:12 30.34764 -94.50372 37028 ft 532 kts 105°
2026-05-07 18:13 30.33559 -94.41898 37028 ft 533 kts 104°
2026-05-07 18:13 30.32360 -94.33491 37019 ft 529 kts 105°
2026-05-07 18:14 30.31146 -94.25015 37022 ft 532 kts 105°
2026-05-07 18:14 30.29939 -94.16633 37020 ft 528 kts 105°
2026-05-07 18:15 30.28731 -94.08317 37017 ft 530 kts 105°
2026-05-07 18:15 30.27506 -93.99930 37018 ft 531 kts 105°
2026-05-07 18:16 30.26275 -93.91513 37020 ft 528 kts 105°
2026-05-07 18:16 30.25048 -93.83144 37023 ft 528 kts 105°
2026-05-07 18:17 30.23810 -93.74768 37027 ft 530 kts 105°
2026-05-07 18:17 30.22570 -93.66396 37024 ft 528 kts 105°
2026-05-07 18:18 30.21324 -93.58031 37024 ft 527 kts 105°
2026-05-07 18:18 30.20068 -93.49643 37034 ft 528 kts 105°
2026-05-07 18:19 30.18807 -93.41274 37034 ft 529 kts 105°
2026-05-07 18:19 30.17543 -93.32905 37037 ft 525 kts 105°
2026-05-07 18:20 30.16284 -93.24605 37036 ft 527 kts 105°
2026-05-07 18:20 30.15041 -93.16281 37034 ft 526 kts 104°
2026-05-07 18:21 30.14360 -93.07824 37037 ft 533 kts 95°
2026-05-07 18:21 30.14503 -92.99236 37037 ft 535 kts 90°
2026-05-07 18:22 30.14984 -92.90581 36611 ft 539 kts 89°
2026-05-07 18:22 30.15072 -92.89143 36394 ft 539 kts 89°
2026-05-07 18:22 30.15510 -92.81917 35317 ft 535 kts 89°
2026-05-07 18:22 30.15756 -92.77634 34678 ft 532 kts 89°
2026-05-07 18:23 30.15989 -92.73363 34042 ft 530 kts 89°
2026-05-07 18:23 30.16208 -92.69145 33418 ft 532 kts 90°
2026-05-07 18:23 30.16424 -92.64812 32810 ft 536 kts 89°
2026-05-07 18:23 30.16630 -92.60556 32257 ft 537 kts 89°
2026-05-07 18:24 30.16838 -92.56210 31688 ft 535 kts 89°
2026-05-07 18:24 30.17037 -92.51979 31133 ft 531 kts 90°
2026-05-07 18:24 30.17236 -92.47712 30578 ft 527 kts 90°
2026-05-07 18:24 30.17430 -92.43504 30017 ft 523 kts 89°
2026-05-07 18:25 30.17623 -92.39326 29459 ft 519 kts 89°
2026-05-07 18:25 30.17811 -92.35200 28912 ft 515 kts 89°
2026-05-07 18:25 30.17998 -92.31059 28350 ft 511 kts 90°
2026-05-07 18:25 30.18181 -92.27013 27814 ft 506 kts 89°
2026-05-07 18:26 30.18362 -92.22936 27268 ft 502 kts 90°
2026-05-07 18:26 30.18538 -92.18951 26752 ft 497 kts 90°
2026-05-07 18:26 30.18713 -92.14972 26234 ft 493 kts 89°
2026-05-07 18:26 30.18884 -92.11038 25708 ft 488 kts 89°
2026-05-07 18:27 30.19051 -92.07149 25201 ft 484 kts 89°
2026-05-07 18:27 30.19217 -92.03280 24685 ft 480 kts 89°
2026-05-07 18:27 30.19356 -91.99432 24183 ft 474 kts 91°
2026-05-07 18:27 30.19343 -91.96897 23860 ft 470 kts 94°
2026-05-07 18:28 30.19099 -91.91927 23217 ft 463 kts 97°
2026-05-07 18:28 30.18822 -91.88238 22738 ft 458 kts 98°
2026-05-07 18:28 30.18521 -91.84599 22289 ft 453 kts 98°
2026-05-07 18:28 30.18220 -91.81010 21840 ft 448 kts 98°
2026-05-07 18:29 30.17926 -91.77455 21390 ft 444 kts 98°
2026-05-07 18:29 30.17639 -91.73899 20935 ft 440 kts 98°
2026-05-07 18:29 30.17363 -91.70391 20481 ft 437 kts 98°
2026-05-07 18:29 30.17095 -91.66898 20029 ft 434 kts 98°
2026-05-07 18:30 30.16835 -91.63468 19586 ft 430 kts 98°
2026-05-07 18:30 30.16577 -91.60026 19159 ft 426 kts 98°
2026-05-07 18:30 30.16325 -91.56664 18729 ft 423 kts 98°
2026-05-07 18:30 30.16070 -91.53292 18303 ft 421 kts 98°
2026-05-07 18:31 30.15818 -91.49946 17866 ft 417 kts 98°
2026-05-07 18:31 30.15570 -91.46634 17431 ft 413 kts 97°
2026-05-07 18:31 30.15324 -91.43307 16981 ft 409 kts 97°
2026-05-07 18:31 30.15075 -91.40093 16550 ft 405 kts 99°
2026-05-07 18:32 30.14667 -91.36890 16126 ft 400 kts 103°
2026-05-07 18:32 30.14137 -91.33726 15789 ft 395 kts 105°
2026-05-07 18:32 30.13574 -91.30614 15474 ft 393 kts 105°
2026-05-07 18:32 30.13003 -91.27546 15172 ft 390 kts 105°
2026-05-07 18:33 30.12428 -91.24505 14904 ft 387 kts 105°
2026-05-07 18:33 30.11853 -91.21501 14639 ft 385 kts 105°
2026-05-07 18:33 30.11270 -91.18475 14379 ft 377 kts 105°
2026-05-07 18:33 30.10709 -91.15569 14142 ft 368 kts 105°
2026-05-07 18:34 30.10156 -91.12717 13904 ft 359 kts 105°
2026-05-07 18:34 30.09615 -91.09940 13653 ft 351 kts 105°
2026-05-07 18:34 30.09079 -91.07220 13411 ft 343 kts 105°
2026-05-07 18:34 30.08551 -91.04562 13168 ft 336 kts 105°
2026-05-07 18:35 30.08033 -91.01976 12927 ft 329 kts 105°
2026-05-07 18:35 30.07520 -90.99419 12691 ft 323 kts 105°
2026-05-07 18:35 30.07013 -90.96888 12449 ft 317 kts 105°
2026-05-07 18:35 30.06521 -90.94430 12207 ft 315 kts 105°
2026-05-07 18:36 30.06021 -90.91956 11964 ft 317 kts 105°
2026-05-07 18:36 30.05520 -90.89481 11725 ft 315 kts 105°
2026-05-07 18:36 30.05026 -90.87039 11489 ft 313 kts 105°
2026-05-07 18:36 30.04507 -90.84619 11242 ft 311 kts 107°
2026-05-07 18:37 30.03908 -90.82222 11003 ft 309 kts 108°
2026-05-07 18:37 30.03284 -90.79843 10763 ft 308 kts 109°
2026-05-07 18:37 30.02658 -90.77476 10520 ft 305 kts 109°
2026-05-07 18:37 30.02037 -90.75137 10278 ft 304 kts 109°
2026-05-07 18:38 30.01415 -90.72798 10030 ft 304 kts 109°
2026-05-07 18:38 30.00794 -90.70473 9792 ft 302 kts 108°
2026-05-07 18:38 30.00172 -90.68162 9552 ft 301 kts 108°
2026-05-07 18:38 29.99549 -90.65857 9313 ft 300 kts 108°
2026-05-07 18:39 29.98932 -90.63584 9080 ft 298 kts 108°
2026-05-07 18:39 29.98315 -90.61314 8871 ft 296 kts 108°
2026-05-07 18:39 29.97694 -90.59030 8681 ft 296 kts 108°
2026-05-07 18:39 29.97082 -90.56765 8490 ft 296 kts 108°
2026-05-07 18:40 29.96476 -90.54517 8295 ft 293 kts 108°
2026-05-07 18:40 29.95871 -90.52273 8105 ft 294 kts 108°
2026-05-07 18:40 29.95266 -90.50024 7913 ft 293 kts 108°
2026-05-07 18:40 29.94663 -90.47784 7723 ft 291 kts 108°
2026-05-07 18:41 29.94062 -90.45552 7537 ft 291 kts 108°
2026-05-07 18:41 29.93460 -90.43325 7347 ft 289 kts 108°
2026-05-07 18:41 29.92860 -90.41110 7153 ft 289 kts 108°
2026-05-07 18:41 29.92265 -90.38914 6961 ft 287 kts 108°
2026-05-07 18:42 29.91673 -90.36714 6769 ft 285 kts 108°
2026-05-07 18:42 29.91087 -90.34531 6576 ft 284 kts 109°
2026-05-07 18:42 29.90505 -90.32382 6384 ft 282 kts 109°
2026-05-07 18:42 29.89919 -90.30197 6188 ft 283 kts 109°
2026-05-07 18:43 29.89343 -90.28033 5991 ft 282 kts 109°
2026-05-07 18:43 29.88773 -90.25873 5796 ft 281 kts 109°
2026-05-07 18:43 29.88204 -90.23714 5600 ft 279 kts 108°
2026-05-07 18:43 29.87640 -90.21589 5406 ft 277 kts 108°
2026-05-07 18:44 29.87074 -90.19471 5210 ft 274 kts 108°
2026-05-07 18:44 29.86510 -90.17370 5015 ft 275 kts 108°
2026-05-07 18:44 29.85943 -90.15272 4819 ft 274 kts 108°
2026-05-07 18:44 29.85381 -90.13186 4634 ft 272 kts 109°
2026-05-07 18:45 29.84803 -90.11105 4428 ft 271 kts 109°
2026-05-07 18:45 29.84245 -90.09036 4243 ft 271 kts 109°
2026-05-07 18:45 29.83648 -90.06957 4056 ft 268 kts 109°
2026-05-07 18:45 29.83141 -90.04918 3890 ft 265 kts 100°
2026-05-07 18:46 29.83251 -90.02811 3683 ft 269 kts 72°
2026-05-07 18:46 29.84189 -90.00982 3494 ft 265 kts 45°
2026-05-07 18:46 29.85649 -89.99693 3295 ft 259 kts 27°
2026-05-07 18:46 29.87280 -89.98997 3097 ft 240 kts
2026-05-07 18:47 29.88877 -89.98917 2974 ft 219 kts 349°
2026-05-07 18:47 29.90255 -89.99404 2982 ft 198 kts 329°
2026-05-07 18:47 29.91328 -90.00366 2981 ft 194 kts 312°
2026-05-07 18:47 29.92223 -90.01507 2975 ft 193 kts 309°
2026-05-07 18:48 29.93078 -90.02718 2973 ft 193 kts 304°
2026-05-07 18:48 29.93736 -90.04054 2978 ft 192 kts 290°
2026-05-07 18:48 29.94118 -90.05518 2980 ft 188 kts 283°
2026-05-07 18:48 29.94458 -90.06941 2970 ft 176 kts 285°
2026-05-07 18:49 29.94803 -90.08244 2988 ft 168 kts 285°
2026-05-07 18:49 29.95135 -90.09574 2759 ft 172 kts 284°
2026-05-07 18:49 29.95448 -90.10883 2510 ft 169 kts 285°
2026-05-07 18:49 29.95769 -90.12198 2282 ft 170 kts 285°
2026-05-07 18:50 29.96093 -90.13512 2052 ft 169 kts 286°
2026-05-07 18:50 29.96411 -90.14820 1826 ft 170 kts 287°
2026-05-07 18:50 29.96716 -90.16122 1628 ft 165 kts 285°
2026-05-07 18:50 29.96998 -90.17409 1470 ft 165 kts 287°
2026-05-07 18:51 29.97308 -90.18694 1258 ft 169 kts 288°
2026-05-07 18:51 29.97649 -90.19998 997 ft 167 kts 289°
2026-05-07 18:51 29.97980 -90.21268 778 ft 163 kts 288°
2026-05-07 18:51 29.98298 -90.22526 521 ft 164 kts 288°
2026-05-07 18:52 29.98603 -90.23784 275 ft 164 kts 287°
2026-05-07 18:52 29.98908 -90.25060 54 ft 164 kts 288°
2026-05-07 18:52 29.99201 -90.26256 12 ft 128 kts 286°
2026-05-07 18:52 29.99382 -90.27014 11 ft 72 kts 285°
2026-05-07 18:53 29.99492 -90.27478 11 ft 41 kts 285°
2026-05-07 18:53 29.99567 -90.27693 11 ft 22 kts 325°
2026-05-07 18:53 29.99707 -90.27676 11 ft 19 kts 22°
2026-05-07 18:53 29.99743 -90.27546 11 ft 19 kts 105°
2026-05-07 18:54 29.99705 -90.27401 11 ft 19 kts 106°
2026-05-07 18:54 29.99660 -90.27209 11 ft 29 kts 105°
2026-05-07 18:54 29.99605 -90.26976 11 ft 29 kts 105°
2026-05-07 18:54 29.99550 -90.26753 11 ft 28 kts 105°
2026-05-07 18:55 29.99499 -90.26538 11 ft 27 kts 105°
2026-05-07 18:55 29.99448 -90.26327 11 ft 27 kts 105°
2026-05-07 18:55 29.99400 -90.26129 11 ft 23 kts 105°
2026-05-07 18:55 29.99359 -90.25964 11 ft 18 kts 105°
2026-05-07 18:56 29.99312 -90.25864 11 ft 13 kts 153°
2026-05-07 18:56 29.99241 -90.25807 11 ft 12 kts 115°
2026-05-07 18:56 29.99217 -90.25716 11 ft 11 kts 95°
2026-05-07 18:56 29.99212 -90.25625 11 ft 10 kts 93°
2026-05-07 18:57 29.99248 -90.25568 11 ft 9 kts 12°
2026-05-07 18:57 29.99308 -90.25558 11 ft 7 kts
2026-05-07 18:57 29.99353 -90.25562 11 ft 4 kts 334°
2026-05-07 18:57 29.99370 -90.25586 11 ft 3 kts 291°
2026-05-07 18:58 29.99376 -90.25605 11 ft 1 kts 288°
2026-05-07 18:58 29.99377 -90.25610 11 ft 0 kts 288°